Location: George Washington National Forest Helicopter Landing Site
(38.6463°N, 79.0851°W)
Time: 02:31:32
(UTC-04:00)

Courier 1B Rocket - Visible Passes

Search period start: 25 August 2019 00:00
Search period end: 04 September 2019 00:00
Orbit: 920 x 1202 km, 28.3° (Epoch: 24 August)

Date Brightness Start Highest point End Pass type
(mag) Time Alt. Az. Time Alt. Az. Time Alt. Az.
25 Aug 7.5 02:46:57 11° ESE 02:46:57 11° ESE 02:47:24 10° ESE visible
25 Aug 5.9 04:33:19 33° SSW 04:34:43 36° S 04:41:35 10° ESE visible
26 Aug 6.5 03:36:04 27° SE 03:36:04 27° SE 03:40:15 10° ESE visible
26 Aug 6.0 05:22:26 20° SW 05:26:45 37° S 05:33:42 10° ESE visible
27 Aug 5.8 04:25:13 37° S 04:25:42 37° S 04:32:34 10° ESE visible
27 Aug 6.3 06:12:24 10° WSW 06:18:46 31° SSW 06:25:22 10° SE visible
28 Aug 6.7 03:28:04 24° SE 03:28:04 24° SE 03:31:19 10° ESE visible
28 Aug 6.1 05:14:27 24° SW 05:17:45 34° S 05:24:28 10° SE visible
29 Aug 6.0 04:17:21 35° S 04:17:21 35° S 04:23:26 10° ESE visible
29 Aug 6.5 06:03:53 10° WSW 06:09:42 25° SSW 06:15:45 10° SE visible
30 Aug 7.0 03:20:20 18° SE 03:20:20 18° SE 03:22:18 10° ESE visible
30 Aug 6.1 05:06:44 26° SW 05:08:43 29° SSW 05:15:04 10° SE visible
31 Aug 6.3 04:09:48 28° SSE 04:09:48 28° SSE 04:14:11 10° SE visible
31 Aug 6.7 05:56:11 12° WSW 06:00:37 20° SSW 06:05:46 10° SSE visible
01 Sep 7.5 03:12:56 11° ESE 03:12:56 11° ESE 03:13:11 10° ESE visible
01 Sep 6.3 04:59:20 24° SSW 04:59:42 24° SSW 05:05:24 10° SSE visible
02 Sep 6.9 04:02:34 18° SSE 04:02:34 18° SSE 04:04:45 10° SE visible
02 Sep 6.8 05:48:58 12° SW 05:51:32 14° SSW 05:55:05 10° S visible
03 Sep 6.8 04:52:17 17° S 04:52:17 17° S 04:55:21 10° SSE visible
